Madison, SD

9:56 AM CDT on June 25, 2017 (GMT -0500)
Madison Municipal

Weather History for KMDS - January, 2014

Change the Weather History Date:

Tuesday, January 7, 2014

  Actual Average Record
Temperature  
Mean Temperature 0 °F -  
Max Temperature 6 °F 18 °F 39 °F (2012)
Min Temperature -7 °F -1 °F -9 °F (2015)
Degree Days  
Heating Degree Days 66    
Moisture  
Dew Point -4 °F    
Average Humidity 79    
Maximum Humidity 92    
Minimum Humidity 71    
Precipitation  
Precipitation 0.04 in - - ()
Sea Level Pressure  
Sea Level Pressure 30.08 in    
Wind  
Wind Speed 5 mph (NNE)    
Max Wind Speed 10 mph    
Max Gust Speed -    
Visibility 10 miles    
Events Snow    
Averages and records for this station are not official NWS values.
T = Trace of Precipitation, MM = Missing Value Source: NWS Daily Summary

Daily Weather History Graph

Daily Weather History Graph

Search for Another Location

Airport or City:

Trip Planner

Search our weather history database for the weather conditions in past years. The results will help you decide how hot, cold, wet, or windy it might be!

Date:

Astronomy

Jan. 07, 2014 Rise Set
Actual Time 8:02 AM CST 5:06 PM CST
Civil Twilight 7:30 AM CST 5:39 PM CST
Nautical Twilight 6:54 AM CST 6:15 PM CST
Astronomical Twilight 6:19 AM CST 6:50 PM CST
Moon 11:36 AM CST (1/7) No Moon Set
Length of Visible Light 10h 09m
Length of Day
9h 04m
Waxing Crescent, 46% of the Moon is Illuminated
Jan 7
Waxing Crescent
Jan 7
First Quarter
Jan 15
Full
Jan 23
Last Quarter
Jan 30
New

Hourly Weather History & Observations

Time (CST) Temp. Windchill Dew Point Humidity Pressure Visibility Wind Dir Wind Speed Gust Speed Precip Events Conditions
12:05 AM -7.6 °F -18.8 °F -13.0 °F 77% 30.11 in 10.0 mi SW 4.6 mph - N/A   Mostly Cloudy
12:30 AM -7.6 °F -20.6 °F -13.0 °F 77% 30.09 in 10.0 mi SW 5.8 mph - N/A   Overcast
12:50 AM -7.6 °F -16.5 °F -13.0 °F 77% 30.07 in 10.0 mi SSW 3.5 mph - N/A   Mostly Cloudy
1:05 AM -7.6 °F - -11.2 °F 84% 30.07 in 10.0 mi Calm Calm - N/A   Partly Cloudy
1:30 AM -5.8 °F -21.2 °F -11.2 °F 77% 30.04 in 10.0 mi SW 8.1 mph - N/A   Mostly Cloudy
1:45 AM -5.8 °F -19.9 °F -11.2 °F 77% 30.04 in 10.0 mi SW 6.9 mph - N/A   Mostly Cloudy
2:10 AM -4.0 °F -17.8 °F -11.2 °F 71% 30.04 in 10.0 mi SW 6.9 mph - N/A   Overcast
2:25 AM -4.0 °F -17.8 °F -11.2 °F 71% 30.05 in 10.0 mi WSW 6.9 mph - N/A   Overcast
2:50 AM -4.0 °F -19.0 °F -11.2 °F 71% 30.04 in 10.0 mi SW 8.1 mph - N/A   Overcast
3:05 AM -4.0 °F -21.2 °F -9.4 °F 78% 30.04 in 10.0 mi SSW 10.4 mph - N/A   Overcast
3:30 AM -4.0 °F -19.0 °F -9.4 °F 78% 30.04 in 10.0 mi SSW 8.1 mph - N/A   Overcast
3:45 AM -4.0 °F -17.8 °F -9.4 °F 78% 30.04 in 10.0 mi SW 6.9 mph - N/A   Overcast
4:05 AM -2.2 °F -15.6 °F -9.4 °F 71% 30.03 in 10.0 mi South 6.9 mph - N/A   Overcast
4:25 AM -2.2 °F -14.2 °F -9.4 °F 71% 30.03 in 10.0 mi South 5.8 mph - N/A   Overcast
4:45 AM -2.2 °F -14.2 °F -9.4 °F 71% 30.02 in 10.0 mi South 5.8 mph - N/A   Overcast
5:10 AM -2.2 °F -10.4 °F -9.4 °F 71% 30.02 in 10.0 mi SSE 3.5 mph - N/A   Overcast
5:25 AM -2.2 °F -16.8 °F -7.6 °F 78% 30.02 in 10.0 mi South 8.1 mph - N/A   Overcast
5:45 AM -2.2 °F -14.2 °F -7.6 °F 78% 30.01 in 10.0 mi SSE 5.8 mph - N/A   Overcast
6:10 AM -0.4 °F -10.4 °F -7.6 °F 72% 30.00 in 10.0 mi South 4.6 mph - N/A Snow Light Snow
6:25 AM -0.4 °F -10.4 °F -7.6 °F 72% 30.00 in 10.0 mi South 4.6 mph - N/A Snow Light Snow
6:50 AM -0.4 °F -8.3 °F -7.6 °F 72% 30.00 in 10.0 mi South 3.5 mph - N/A   Overcast
7:05 AM -0.4 °F -12.0 °F -5.8 °F 78% 29.99 in 10.0 mi South 5.8 mph - N/A   Overcast
7:30 AM -0.4 °F -10.4 °F -5.8 °F 78% 30.00 in 10.0 mi SSE 4.6 mph - N/A   Overcast
7:45 AM -0.4 °F -8.3 °F -5.8 °F 78% 30.01 in 10.0 mi SSE 3.5 mph - N/A   Overcast
8:05 AM -0.4 °F -8.3 °F -5.8 °F 78% 30.01 in 10.0 mi East 3.5 mph - N/A Snow Light Snow
8:25 AM -0.4 °F -10.4 °F -4.0 °F 85% 30.02 in 10.0 mi ENE 4.6 mph - N/A Snow Light Snow
8:50 AM -0.4 °F -8.3 °F -4.0 °F 85% 30.03 in 3.0 mi ENE 3.5 mph - 0.04 in Snow Light Snow
9:05 AM -0.4 °F -8.3 °F -2.2 °F 92% 30.03 in 10.0 mi East 3.5 mph - N/A Snow Light Snow
9:30 AM 1.4 °F -6.2 °F -2.2 °F 85% 30.04 in 10.0 mi South 3.5 mph - N/A   Mostly Cloudy
9:45 AM 1.4 °F -6.2 °F -2.2 °F 85% 30.04 in 10.0 mi South 3.5 mph - N/A Snow Light Snow
10:10 AM 1.4 °F -6.2 °F -2.2 °F 85% 30.04 in 10.0 mi SSE 3.5 mph - N/A   Mostly Cloudy
10:25 AM 1.4 °F -6.2 °F -2.2 °F 85% 30.04 in 10.0 mi East 3.5 mph - N/A   Overcast
10:50 AM 3.2 °F -4.2 °F -0.4 °F 85% 30.05 in 10.0 mi East 3.5 mph - N/A   Overcast
11:05 AM 3.2 °F -4.2 °F -0.4 °F 85% 30.04 in 10.0 mi East 3.5 mph - N/A   Overcast
11:25 AM 5.0 °F -2.1 °F -0.4 °F 78% 30.04 in 10.0 mi NE 3.5 mph - N/A   Overcast
11:50 AM 5.0 °F -4.1 °F -0.4 °F 78% 30.04 in 10.0 mi NE 4.6 mph - N/A   Overcast
12:05 PM 5.0 °F -4.1 °F -0.4 °F 78% 30.04 in 10.0 mi NE 4.6 mph - N/A   Overcast
12:30 PM 5.0 °F -4.1 °F -0.4 °F 78% 30.03 in 10.0 mi NNE 4.6 mph - N/A   Overcast
12:45 PM 5.0 °F -5.6 °F -0.4 °F 78% 30.04 in 10.0 mi North 5.8 mph - N/A   Overcast
1:05 PM 5.0 °F -4.1 °F -0.4 °F 78% 30.04 in 10.0 mi NNE 4.6 mph - N/A   Overcast
1:30 PM 5.0 °F -4.1 °F -0.4 °F 78% 30.04 in 10.0 mi NNE 4.6 mph - N/A   Overcast
1:45 PM 5.0 °F -6.9 °F -0.4 °F 78% 30.05 in 10.0 mi North 6.9 mph - N/A   Overcast
2:10 PM 5.0 °F -5.6 °F -0.4 °F 78% 30.06 in 10.0 mi North 5.8 mph - N/A   Overcast
2:25 PM 5.0 °F -5.6 °F -0.4 °F 78% 30.06 in 10.0 mi North 5.8 mph - N/A   Overcast
2:50 PM 6.8 °F -6.9 °F -0.4 °F 72% 30.07 in 10.0 mi North 9.2 mph - N/A   Overcast
3:05 PM 5.0 °F -9.1 °F -0.4 °F 78% 30.08 in 10.0 mi North 9.2 mph - N/A   Overcast
3:30 PM 5.0 °F -6.9 °F -0.4 °F 78% 30.09 in 10.0 mi North 6.9 mph - N/A   Overcast
3:45 PM 5.0 °F -5.6 °F -0.4 °F 78% 30.10 in 10.0 mi North 5.8 mph - N/A   Overcast
4:10 PM 5.0 °F -6.9 °F -0.4 °F 78% 30.10 in 10.0 mi North 6.9 mph - N/A   Overcast
4:25 PM 5.0 °F -4.1 °F -0.4 °F 78% 30.10 in 10.0 mi North 4.6 mph - N/A   Overcast
4:45 PM 5.0 °F -2.1 °F -0.4 °F 78% 30.11 in 10.0 mi NNW 3.5 mph - N/A   Overcast
5:05 PM 5.0 °F -4.1 °F -0.4 °F 78% 30.11 in 10.0 mi North 4.6 mph - N/A   Overcast
5:25 PM 5.0 °F -5.6 °F -0.4 °F 78% 30.12 in 10.0 mi North 5.8 mph - N/A   Overcast
5:45 PM 5.0 °F -5.6 °F -0.4 °F 78% 30.12 in 10.0 mi North 5.8 mph - N/A Snow Light Snow
6:10 PM 5.0 °F -4.1 °F -0.4 °F 78% 30.14 in 10.0 mi North 4.6 mph - N/A   Overcast
6:25 PM 5.0 °F -6.9 °F -0.4 °F 78% 30.14 in 10.0 mi North 6.9 mph - N/A   Overcast
6:50 PM 5.0 °F -8.1 °F -0.4 °F 78% 30.14 in 10.0 mi NNE 8.1 mph - N/A Snow Light Snow
7:05 PM 5.0 °F -5.6 °F -0.4 °F 78% 30.14 in 10.0 mi NNE 5.8 mph - N/A   Overcast
7:30 PM 5.0 °F -6.9 °F -0.4 °F 78% 30.15 in 10.0 mi NNE 6.9 mph - N/A   Overcast
7:45 PM 5.0 °F -2.1 °F -0.4 °F 78% 30.15 in 10.0 mi NNE 3.5 mph - N/A   Overcast
8:10 PM 5.0 °F - -0.4 °F 78% 30.16 in 10.0 mi Calm Calm - N/A   Overcast
8:25 PM 5.0 °F - -0.4 °F 78% 30.16 in 10.0 mi Calm Calm - N/A   Overcast
8:45 PM 5.0 °F -2.1 °F -0.4 °F 78% 30.16 in 10.0 mi NNW 3.5 mph - N/A   Overcast
9:05 PM 5.0 °F -4.1 °F -0.4 °F 78% 30.16 in 10.0 mi North 4.6 mph - N/A   Overcast
9:25 PM 3.2 °F -4.2 °F -0.4 °F 85% 30.16 in 10.0 mi NNW 3.5 mph - N/A   Overcast
9:45 PM 3.2 °F - -0.4 °F 85% 30.17 in 10.0 mi Calm Calm - N/A   Overcast
10:05 PM 3.2 °F -4.2 °F -0.4 °F 85% 30.18 in 10.0 mi NNW 3.5 mph - N/A   Overcast
10:25 PM 3.2 °F - -0.4 °F 85% 30.19 in 10.0 mi Calm Calm - N/A   Overcast
10:50 PM 3.2 °F -6.2 °F -0.4 °F 85% 30.20 in 10.0 mi North 4.6 mph - N/A   Overcast
11:05 PM 3.2 °F -7.8 °F -0.4 °F 85% 30.20 in 10.0 mi North 5.8 mph - N/A   Overcast
11:30 PM 3.2 °F -7.8 °F -0.4 °F 85% 30.20 in 10.0 mi North 5.8 mph - N/A   Overcast
11:45 PM 3.2 °F -6.2 °F -0.4 °F 85% 30.20 in 10.0 mi North 4.6 mph - N/A   Overcast